| time (UTC) | temp C | wind direction | speed KPH | gust KPH | rain 1hr cm | rain 24hr cm | rain mn cm | humidity % | barometer mb |
| 20260505031224 | 11 | 209 | 4.8 | 19.3 | 0.00 | 0.00 | 0.00 | 76 | 1007.0 |
| 20260505030203 | 11 | 208 | 8.0 | 19.3 | 0.00 | 0.00 | 0.00 | 76 | 1006.9 |
| 20260505025203 | 11 | 248 | 8.0 | 19.3 | 0.00 | 0.00 | 0.00 | 76 | 1007.0 |
| 20260505024202 | 11 | 236 | 6.4 | 17.7 | 0.00 | 0.00 | 0.00 | 76 | 1006.9 |
| 20260505023225 | 11 | 221 | 8.0 | 20.9 | 0.00 | 0.00 | 0.00 | 76 | 1006.8 |
| 20260505022203 | 10 | 252 | 9.7 | 20.9 | 0.00 | 0.00 | 0.00 | 77 | 1006.7 |
| 20260505021202 | 10 | 242 | 9.7 | 24.1 | 0.00 | 0.00 | 0.00 | 78 | 1006.7 |
| 20260505020245 | 10 | 240 | 8.0 | 22.5 | 0.00 | 0.00 | 0.00 | 79 | 1006.7 |
| 20260505015203 | 10 | 230 | 8.0 | 24.1 | 0.00 | 0.00 | 0.00 | 79 | 1006.6 |
| 20260505014202 | 10 | 237 | 8.0 | 22.5 | 0.00 | 0.00 | 0.00 | 79 | 1006.6 |
| 20260505013203 | 10 | 238 | 9.7 | 24.1 | 0.00 | 0.00 | 0.00 | 80 | 1006.4 |
| 20260505012203 | 10 | 231 | 6.4 | 22.5 | 0.00 | 0.00 | 0.00 | 79 | 1006.3 |
| 20260505011203 | 10 | 239 | 11.3 | 20.9 | 0.00 | 0.00 | 0.00 | 80 | 1006.2 |
| 20260505010203 | 10 | 244 | 12.9 | 27.4 | 0.00 | 0.00 | 0.00 | 79 | 1006.1 |
| 20260505005224 | 10 | 241 | 8.0 | 24.1 | 0.00 | 0.00 | 0.00 | 79 | 1006.1 |
| 20260505004225 | 10 | 238 | 9.7 | 19.3 | 0.00 | 0.00 | 0.00 | 78 | 1005.9 |
| 20260505003203 | 10 | 238 | 8.0 | 16.1 | 0.00 | 0.00 | 0.00 | 78 | 1005.7 |
| 20260505002203 | 9 | 232 | 6.4 | 14.5 | 0.00 | 0.00 | 0.00 | 79 | 1005.7 |
| 20260505001203 | 9 | 256 | 4.8 | 14.5 | 0.00 | 0.00 | 0.00 | 78 | 1005.6 |
| 20260505000204 | 10 | 211 | 3.2 | 17.7 | 0.00 | 0.00 | 0.00 | 77 | 1005.6 |
| 20260504235204 | 10 | 268 | 3.2 | 19.3 | 0.00 | 0.00 | 0.00 | 76 | 1005.5 |
| 20260504234203 | 10 | 193 | 4.8 | 12.9 | 0.00 | 0.00 | 0.00 | 75 | 1005.2 |
| 20260504233203 | 10 | 182 | 3.2 | 11.3 | 0.00 | 0.00 | 0.00 | 74 | 1005.2 |
| 20260504232203 | 10 | 203 | 3.2 | 11.3 | 0.00 | 0.00 | 0.00 | 72 | 1005.0 |
| 20260504231203 | 11 | 194 | 6.4 | 12.9 | 0.00 | 0.00 | 0.00 | 72 | 1005.0 |
| 20260504230202 | 11 | 191 | 4.8 | 9.7 | 0.00 | 0.00 | 0.00 | 70 | 1004.9 |
| 20260504225203 | 11 | 196 | 4.8 | 9.7 | 0.00 | 0.00 | 0.00 | 69 | 1004.7 |
| 20260504224202 | 12 | 193 | 1.6 | 9.7 | 0.00 | 0.00 | 0.00 | 67 | 1004.7 |
| 20260504223203 | 12 | 236 | 3.2 | 9.7 | 0.00 | 0.00 | 0.00 | 66 | 1004.7 |
| 20260504222203 | 12 | 199 | 3.2 | 14.5 | 0.00 | 0.00 | 0.00 | 64 | 1004.6 |
| 20260504221223 | 13 | 192 | 6.4 | 12.9 | 0.00 | 0.00 | 0.00 | 61 | 1004.6 |
| 20260504220204 | 14 | 266 | 4.8 | 9.7 | 0.00 | 0.00 | 0.00 | 60 | 1004.7 |
| 20260504215224 | 15 | 188 | 4.8 | 12.9 | 0.00 | 0.00 | 0.00 | 58 | 1004.6 |
| 20260504214203 | 15 | 177 | 3.2 | 16.1 | 0.00 | 0.00 | 0.00 | 60 | 1004.5 |
| 20260504212223 | 16 | 171 | 3.2 | 9.7 | 0.00 | 0.00 | 0.00 | 61 | 1004.5 |
| 20260504211203 | 16 | 198 | 3.2 | 8.0 | 0.00 | 0.00 | 0.00 | 61 | 1004.5 |
| 20260504210204 | 16 | 209 | 4.8 | 8.0 | 0.00 | 0.00 | 0.00 | 58 | 1004.5 |
| 20260504205202 | 16 | 203 | 3.2 | 6.4 | 0.00 | 0.00 | 0.00 | 59 | 1004.5 |
| 20260504204224 | 16 | 202 | 3.2 | 8.0 | 0.00 | 0.00 | 0.00 | 59 | 1004.4 |
| 20260504203224 | 16 | 198 | 3.2 | 11.3 | 0.00 | 0.00 | 0.00 | 59 | 1004.3 |
| 20260504202202 | 16 | 193 | 3.2 | 9.7 | 0.00 | 0.00 | 0.00 | 60 | 1004.5 |
| 20260504201203 | 16 | 193 | 3.2 | 11.3 | 0.00 | 0.00 | 0.00 | 60 | 1004.5 |
| 20260504200202 | 15 | 209 | 4.8 | 11.3 | 0.00 | 0.00 | 0.00 | 60 | 1004.4 |
| 20260504195203 | 15 | 203 | 4.8 | 12.9 | 0.00 | 0.00 | 0.00 | 60 | 1004.4 |
| 20260504194203 | 15 | 184 | 4.8 | 14.5 | 0.00 | 0.00 | 0.00 | 61 | 1004.5 |
| 20260504193203 | 15 | 218 | 4.8 | 16.1 | 0.00 | 0.00 | 0.00 | 61 | 1004.7 |
| 20260504192203 | 15 | 221 | 6.4 | 12.9 | 0.00 | 0.00 | 0.00 | 63 | 1004.7 |
| 20260504191202 | 12 | 251 | 8.0 | 17.7 | 0.00 | 0.00 | 0.00 | 69 | 1004.9 |
| 20260504190224 | 12 | 235 | 6.4 | 16.1 | 0.00 | 0.00 | 0.00 | 68 | 1004.9 |
| 20260504185202 | 12 | 224 | 8.0 | 22.5 | 0.00 | 0.00 | 0.00 | 66 | 1004.8 |
| 20260504184203 | 13 | 210 | 3.2 | 20.9 | 0.00 | 0.00 | 0.00 | 63 | 1004.7 |
| 20260504183224 | 13 | 261 | 6.4 | 19.3 | 0.00 | 0.00 | 0.00 | 63 | 1004.8 |
| 20260504182202 | 13 | 253 | 8.0 | 14.5 | 0.00 | 0.00 | 0.00 | 65 | 1004.7 |
| 20260504181203 | 12 | 229 | 6.4 | 17.7 | 0.00 | 0.00 | 0.00 | 69 | 1004.9 |
| 20260504180202 | 11 | 239 | 6.4 | 16.1 | 0.00 | 0.00 | 0.00 | 70 | 1005.0 |
| 20260504175203 | 11 | 219 | 4.8 | 20.9 | 0.00 | 0.03 | 0.00 | 69 | 1004.7 |
| 20260504174203 | 12 | 218 | 8.0 | 22.5 | 0.00 | 0.03 | 0.00 | 65 | 1004.7 |
| 20260504173202 | 14 | 205 | 12.9 | 24.1 | 0.00 | 0.03 | 0.00 | 59 | 1004.6 |
| 20260504172203 | 16 | 205 | 11.3 | 25.7 | 0.00 | 0.03 | 0.00 | 57 | 1004.6 |
| 20260504171226 | 16 | 216 | 8.0 | 25.7 | 0.00 | 0.03 | 0.00 | 54 | 1004.5 |
| 20260504170202 | 15 | 230 | 9.7 | 20.9 | 0.00 | 0.03 | 0.00 | 56 | 1004.5 |
| 20260504160203 | 13 | 212 | 12.9 | 29.0 | 0.00 | 0.03 | 0.00 | 63 | 1005.1 |
| 20260504150203 | 14 | 216 | 6.4 | 14.5 | 0.00 | 0.10 | 0.00 | 60 | 1005.6 |
| 20260504141203 | 12 | 200 | 8.0 | 17.7 | 0.00 | 0.13 | 0.00 | 68 | 1006.5 |
| 20260504140203 | 12 | 195 | 6.4 | 14.5 | 0.00 | 0.13 | 0.00 | 71 | 1006.6 |
| 20260504130225 | 10 | 243 | 6.4 | 14.5 | 0.00 | 0.13 | 0.00 | 68 | 1007.2 |
| 20260504120203 | 9 | 237 | 4.8 | 17.7 | 0.00 | 0.23 | 0.00 | 69 | 1007.2 |
| 20260504110203 | 6 | 247 | 3.2 | 11.3 | 0.00 | 0.33 | 0.00 | 77 | 1007.3 |
| 20260504100203 | 3 | 257 | 1.6 | 4.8 | 0.00 | 0.33 | 0.00 | 81 | 1007.2 |
| 20260504081202 | 3 | 238 | 4.8 | 9.7 | 0.00 | 0.41 | 0.00 | 83 | 1006.8 |
| 20260504080203 | 3 | 254 | 3.2 | 11.3 | 0.00 | 0.43 | 0.00 | 81 | 1006.9 |
| 20260504070204 | 2 | 245 | 4.8 | 9.7 | 0.00 | 0.53 | 0.00 | 87 | 1006.6 |
| 20260504060202 | 1 | 260 | 1.6 | 4.8 | 0.00 | 0.56 | 0.00 | 90 | 1006.6 |
| 20260504050204 | 2 | 249 | 1.6 | 4.8 | 0.00 | 0.56 | 0.00 | 85 | 1006.4 |
| 20260504045204 | 2 | 249 | 1.6 | 4.8 | 0.00 | 0.56 | 0.00 | 83 | 1006.3 |
| 20260504044203 | 2 | 249 | 1.6 | 6.4 | 0.00 | 0.56 | 0.00 | 81 | 1006.3 |
| 20260504043203 | 3 | 250 | 3.2 | 9.7 | 0.00 | 0.56 | 0.00 | 79 | 1006.4 |
| 20260504042203 | 3 | 250 | 1.6 | 4.8 | 0.00 | 0.56 | 0.00 | 77 | 1006.5 |
| 20260504041224 | 3 | 250 | 3.2 | 9.7 | 0.00 | 0.56 | 0.00 | 75 | 1006.3 |
| 20260504040203 | 4 | 249 | 3.2 | 11.3 | 0.00 | 0.56 | 0.00 | 73 | 1006.3 |
| 20260504035202 | 5 | 251 | 3.2 | 11.3 | 0.00 | 0.56 | 0.56 | 71 | 1006.2 |
| 20260504034203 | 5 | 258 | 4.8 | 12.9 | 0.00 | 0.56 | 0.56 | 70 | 1006.1 |
| 20260504033224 | 5 | 247 | 4.8 | 12.9 | 0.00 | 0.56 | 0.56 | 70 | 1006.0 |
| 20260504032202 | 5 | 289 | 3.2 | 16.1 | 0.00 | 0.56 | 0.56 | 70 | 1005.9 |